Погода в Сомерсет-Уэст

ЮАР     34°05′28″S   18°50′17″E
темп.,
°C
ветер,
м/с
пор.,
м/с
влажн.,
%
обл.,
%
осадки,
мм/ч
давл.,
гПа
погр.,
м
16 мая, вс
вс1623:00+14ю468499 0.1 1014232
02:00+13ю47820 0.1 1015152
05:00+12ю347240 0.0 101670
08:00+12ююв117077 0.0 101812
11:00+15ююз235469 0.0 1019936
14:00+15юз225473 0.1 1018856
17:00+15ю336236 0.1 1019170
20:00+12вюв11755 0.2 102110
17 мая, пн
пн1723:00+10всв11815 0.0 102210
02:00+9всв11820 0.0 102210
05:00+9св22830 0.0 102214
08:00+10св22800 0.0 102319
11:00+15ссз11560 0.0 1023669
14:00+17ююз215312 0.0 10211284
17:00+15ю33670 0.0 1020232
20:00+11ююв228444 0.0 102111
18 мая, вт
вт1823:00+11юв1185100 0.0 102110
02:00+10св1181100 0.0 101910
05:00+9всв0077100 0.0 101810
08:00+10ссв1165100 0.0 101810
11:00+17ссз234212 0.0 1017302
14:00+22ссз353012 0.0 1014867
17:00+18зюз2249100 0.0 101418
20:00+13с1156100 0.0 101510
19 мая, ср
ср1923:00+12ссв335479 0.0 101528
02:00+12ссв3352100 0.0 101431
05:00+12с3452100 0.0 101338
08:00+11с455687 0.0 101359
11:00+18с574191 0.0 1013507
14:00+20ссз68435 0.0 10111312
17:00+18сз6105755 0.0 1011454
20:00+14с613665 0.0 1012342
20 мая, чт
чт2023:00+13ссв7156957 0.0 1012447
02:00+14с81671100 0.4 1010876
05:00+14с91685100 1.9 10101042
08:00+15ссз101687100 4.1 10111002
11:00+17сз11167531 3.3 10121481
14:00+16зсз10136874 6.2 10131493
17:00+15зсз610617 1.2 1015702
20:00+11ссз478017 2.1 1018106